Flag for Germany Weather past 2 weeks in Apolda, Thuringia, Germany

Now
69 °F

Scattered clouds.


Feels Like: 69 °F
Forecast: 53 / 84 °F
Wind: 2 mph from Northeast

Location: Erfurt-Bindersleben

Current Time: Jul 25, 2014 at 8:59:38 PM

Latest Report: Jul 25, 2014 at 8:00 PM


Visibility: 47 mi

Pressure: 29.90 "Hg

Humidity: 71%

Dew point: 59 °F

Location of ApoldaLocation

Historic Weather in Apolda — Graph

°F

Apolda temperature yesterday

Maximum temperature yesterday: 74 °F (at 2:00 PM)
Minimum temperature yesterday: 57 °F (at 6:00 AM)
Average temperature yesterday: 65 °F

Past Weeks' High & Low Weather Summary

 TemperatureHumidityPressure
High88 °F (Jul 19, 5:00 PM)98% (Jul 25, 2:00 AM)30.20 "Hg (Jul 25, 2:00 AM)
Low52 °F (Jul 13, 5:00 AM)27% (Jul 19, 7:00 PM)29.75 "Hg (Jul 20, 7:00 PM)
Average68 °F69%29.96 "Hg
* Reported Jul 10 8:00 PM — Jul 25 8:00 PM, Apolda, Weather by CustomWeather, © 2014

Note: Actual official high and low records may vary slightly from our data, if they occured in-between our weather recording intervals... More about our weather records

Advertising

Apolda weather history for previous 24 hours

 ConditionsComfort  
Time TempWeatherWind HumidityBarometerVisibility
8:00 PM
Jul 25
69 °FScattered clouds.2 mph71%29.90 "Hg47 mi
7:00 PM69 °FPartly sunny.3 mph69%29.89 "Hg47 mi
6:00 PM70 °FPartly sunny.3 mph68%29.89 "Hg47 mi
5:00 PM70 °FPartly sunny.3 mph69%29.90 "Hg43 mi
4:00 PM69 °FPartly sunny.3 mph73%29.91 "Hg31 mi
3:00 PM68 °FPartly sunny.3 mph75%29.92 "Hg25 mi
2:00 PM65 °FOvercast.2 mph80%29.94 "Hg16 mi
1:00 PM64 °FLow clouds.1 mph88%29.95 "Hg16 mi
12:00 PM62 °FLow clouds.1 mph93%29.96 "Hg11 mi
11:00 AM61 °FLow clouds.2 mph95%29.96 "Hg6 mi
10:00 AM60 °FLow clouds.2 mph96%29.95 "Hg4 mi
9:00 AM59 °FDrizzle. Low clouds.2 mph97%29.95 "Hg2 mi
8:00 AM59 °FDrizzle. Low clouds.2 mph98%29.96 "Hg2 mi
7:00 AM59 °FDrizzle. Low clouds.2 mph98%29.95 "Hg1 mi
6:00 AM59 °FDrizzle. Low clouds.3 mph98%29.95 "Hg1 mi
5:00 AM59 °FDrizzle. Low clouds.3 mph98%29.95 "Hg0 mi
4:00 AM59 °FFog.3 mph98%29.95 "Hg0 mi
3:00 AM59 °FDrizzle. Low clouds.2 mph98%29.96 "Hg1 mi
2:00 AM59 °FDrizzle. Low clouds.3 mph98%29.98 "Hg1 mi
1:00 AM59 °FDrizzle. Low clouds.3 mph97%29.98 "Hg1 mi
12:00 AM60 °FDrizzle. Low clouds.3 mph91%29.98 "Hg11 mi
11:00 PM
Jul 24
62 °FOvercast.6 mph85%29.99 "Hg25 mi
10:00 PM64 °FOvercast.3 mph72%29.98 "Hg31 mi
9:00 PM65 °FOvercast.3 mph73%29.96 "Hg31 mi
8:00 PM67 °FPartly sunny.5 mph65%29.95 "Hg31 mi
Weather by CustomWeather, © 2014

See weather overviewHow to use our weather pages